Wind_Speed
17 18 18 17 15 15 18 19 18 18 17 15 14 13 13 15 15 13 12 11 12 13 12 12 12 13 15 13 12 12 12 11 11 12 14 14 14 13 12 13 15 17 17 16 16 16 17 18 19 20 22 21 20 18 15 16 21 25 25 24 22 21 22 20 14 12 13 13 14 13 12 11 10 8 6 4 4 4 3 2 1 1 1 2 4
14 15 16 16 14 14 16 19 20 19 18 15 14 14 14 14 14 11 11 12 12 12 11 11 13 14 14 13 12 11 11 11 11 12 14 14 14 13 13 15 16 17 17 16 16 16 17 19 20 20 21 22 20 18 15 13 14 20 26 26 24 22 22 19 17 15 12 14 16 14 13 12 11 9 8 5 3 3 3 3 2 1 1 2 3
14 14 15 13 10 6 5 10 16 18 19 16 14 14 14 14 13 11 11 13 13 12 11 11 12 12 12 14 14 12 11 11 12 13 14 13 14 14 14 15 16 16 16 17 18 18 18 18 18 18 19 19 19 16 14 13 13 16 22 26 24 23 20 17 16 16 16 16 17 16 15 14 12 10 9 7 4 3 3 2 3 5 5 5 5
15 14 13 10 9 8 6 7 11 13 15 15 15 14 13 14 12 11 13 15 15 15 13 12 12 12 12 13 14 13 12 12 12 13 12 12 13 15 17 17 16 17 18 18 18 18 19 18 16 16 17 17 18 17 15 14 15 18 21 23 22 20 18 16 15 17 19 18 17 17 16 14 13 11 11 10 7 3 1 4 7 7 6 5 7
13 12 10 9 9 10 11 13 13 10 8 11 14 13 12 13 12 12 14 16 17 16 14 14 13 13 13 12 12 13 12 11 11 12 12 12 13 15 17 17 16 17 17 16 17 18 18 17 16 16 16 16 17 17 16 16 16 17 18 18 18 17 16 16 16 17 20 21 19 17 17 15 13 12 13 14 9 5 5 7 8 7 5 4 6
10 10 9 10 11 10 12 13 11 8 7 10 12 12 13 13 13 13 14 15 16 16 15 15 15 14 14 12 12 13 12 10 12 13 12 13 15 15 15 16 16 17 17 16 16 16 15 16 16 15 15 16 17 17 17 16 15 15 16 16 17 17 17 17 17 17 19 21 20 18 16 15 14 12 13 14 12 10 10 9 8 6 3 3 5
10 10 10 10 9 10 12 12 9 8 10 11 12 13 13 13 13 14 14 13 13 14 16 16 15 15 15 14 13 14 13 12 13 14 12 13 17 17 15 16 18 18 18 17 16 15 14 15 16 16 16 16 18 18 17 16 16 15 15 16 17 17 18 18 18 18 20 20 19 18 17 14 13 11 11 13 13 12 12 9 7 4 1 4 6
11 11 10 10 9 10 12 14 12 11 11 12 14 15 13 12 13 12 13 14 13 13 16 16 13 15 16 15 15 16 15 13 14 14 13 15 19 19 17 18 19 19 18 18 17 15 15 16 16 17 17 17 18 18 17 18 18 16 17 18 18 18 17 17 17 18 20 20 19 19 17 12 10 10 11 14 15 12 10 8 5 2 3 5 5
11 9 8 9 9 9 11 14 15 13 11 11 13 13 12 11 11 12 13 13 11 12 16 15 12 14 17 17 16 18 16 14 14 16 15 16 19 20 19 18 18 19 19 18 18 17 16 17 18 18 18 17 16 16 16 17 18 18 18 20 19 18 17 16 16 16 18 18 17 18 16 12 12 14 15 15 13 10 8 6 3 2 5 5 4
12 9 8 7 7 7 9 11 10 8 6 7 8 11 12 9 7 11 14 14 12 11 13 13 10 12 16 17 18 20 19 16 16 17 17 18 18 19 21 19 17 19 21 20 19 18 17 17 17 17 17 17 16 15 15 16 17 17 19 20 19 18 18 17 16 16 16 17 15 15 14 13 14 16 16 13 11 9 7 4 1 3 6 6 4
14 11 8 6 7 7 6 7 6 4 4 6 9 11 13 11 8 7 8 11 14 13 12 12 11 11 12 13 14 19 22 20 19 19 19 19 19 20 21 21 18 18 21 22 21 20 19 19 18 17 18 18 17 17 17 17 17 17 19 19 18 18 19 19 18 16 15 15 14 13 13 14 14 15 15 13 10 8 5 1 2 4 7 6 4
22 19 15 12 11 9 7 6 4 2 2 4 7 6 7 11 11 9 5 5 9 11 11 11 12 11 11 11 10 14 19 22 22 22 21 21 20 20 22 22 21 20 21 22 21 21 21 21 21 20 20 20 20 19 19 18 18 17 17 18 18 18 19 19 19 18 17 15 14 13 14 15 16 15 14 12 9 6 2 1 2 3 4 5 5
28 27 25 22 20 17 14 13 10 7 6 3 1 2 5 9 11 9 5 2 2 4 6 8 9 10 10 10 10 10 13 19 21 22 24 24 24 23 23 24 24 24 24 23 23 23 24 23 23 23 23 23 23 22 22 21 20 18 17 17 18 18 18 18 18 18 17 16 15 15 15 16 16 15 12 10 7 3 1 1 1 2 4 6 6
27 27 27 25 24 23 22 21 19 16 14 13 12 9 6 2 2 4 3 3 5 5 5 5 7 9 10 11 11 10 10 13 16 18 21 24 25 26 26 27 27 27 27 26 26 26 26 27 27 26 27 26 26 26 25 24 22 21 19 18 18 18 18 17 17 17 16 16 15 15 14 14 14 14 11 8 4 2 1 0 1 3 4 5 5
27 25 25 24 23 22 22 21 20 19 18 17 17 17 15 13 12 9 5 3 6 6 6 6 8 9 11 12 14 16 15 13 13 14 16 19 22 24 24 26 27 29 29 29 29 28 29 30 31 31 31 29 28 28 28 27 26 23 21 21 20 19 19 18 17 16 14 13 13 12 13 12 11 11 9 5 2 1 1 0 2 4 5 6 5
26 24 24 23 21 21 20 20 19 19 18 17 17 17 17 16 15 13 10 7 6 5 5 5 7 10 11 12 13 16 18 18 17 17 17 18 20 21 22 22 23 25 27 29 29 30 31 32 33 33 33 32 31 30 29 29 28 25 23 22 22 21 20 19 18 15 13 11 10 10 12 13 11 8 6 3 1 1 1 3 5 5 4 4 4
24 24 23 22 21 21 20 20 20 19 19 19 19 19 18 17 16 15 13 12 11 10 10 9 8 9 11 13 14 15 15 16 17 18 18 20 21 22 23 23 23 24 25 25 27 29 32 32 32 30 28 29 31 30 29 30 27 24 23 24 23 21 20 19 18 15 11 11 11 11 12 12 9 6 4 3 2 2 3 5 6 3 3 4 4
22 23 23 22 21 21 20 20 21 21 21 21 21 21 20 19 18 17 16 16 15 14 13 12 11 10 11 12 14 17 18 17 17 17 18 19 21 22 23 25 25 25 25 25 25 27 29 30 33 32 29 30 31 30 29 31 28 25 27 27 24 22 21 19 17 15 12 12 13 13 12 10 7 7 6 5 5 5 4 4 4 2 3 5 4
20 21 21 20 20 20 20 20 20 20 20 21 21 21 21 20 19 18 18 18 17 17 16 15 14 13 13 13 14 15 18 19 20 20 20 20 21 22 23 24 25 26 26 27 27 27 27 28 31 33 32 33 34 31 31 33 31 29 29 28 25 24 23 21 20 18 17 16 15 13 11 10 9 9 8 6 5 4 3 2 2 1 3 5 5
17 17 17 17 18 18 18 18 18 18 19 18 18 19 19 19 20 20 20 20 20 19 18 18 18 17 16 16 17 17 18 19 20 21 22 23 24 25 25 25 26 27 28 28 27 28 29 30 31 32 33 33 33 32 33 35 34 31 30 29 29 27 25 22 21 20 20 18 15 12 11 12 10 9 7 5 4 4 3 2 2 3 4 5 5
16 16 17 17 17 17 17 17 17 17 17 17 17 17 18 18 18 19 19 19 19 19 19 19 20 20 19 19 19 18 19 20 20 21 22 24 26 29 29 28 28 28 28 28 28 29 31 33 34 35 34 33 33 32 33 35 34 32 32 32 31 26 23 22 21 20 19 18 15 14 13 12 10 8 7 6 5 5 5 4 4 4 5 5 4
16 16 17 18 18 18 17 17 17 17 17 18 17 17 16 15 15 16 17 17 17 17 17 17 19 20 19 19 19 18 18 18 19 21 22 23 25 30 32 30 28 27 26 26 27 29 31 33 35 35 34 33 33 34 34 34 32 32 33 31 27 22 21 23 23 21 19 18 17 16 14 12 11 11 10 9 9 8 7 6 5 4 4 4 3
15 16 17 18 18 18 18 17 17 17 17 18 17 17 17 16 15 15 17 18 17 17 17 17 18 19 20 19 19 19 19 18 19 20 22 22 24 28 32 32 30 28 26 25 26 27 28 31 33 34 33 34 35 35 34 33 32 32 30 27 23 21 23 26 26 23 21 19 17 17 16 15 15 14 13 12 11 9 7 5 4 4 3 3 2
16 17 18 18 18 18 17 16 16 16 16 17 17 18 19 19 18 18 18 18 18 18 18 19 19 21 22 22 21 20 20 20 20 20 22 22 23 27 32 34 32 29 27 26 25 24 25 27 30 32 33 35 35 34 32 32 31 28 26 25 24 23 25 28 26 23 22 20 19 19 18 16 15 15 14 12 10 8 7 6 5 4 3 2 3
17 17 17 17 17 16 15 15 15 16 17 18 19 20 20 20 19 19 19 19 18 18 18 20 20 21 22 23 23 22 21 21 21 20 21 21 22 25 30 34 33 30 26 24 23 23 23 25 26 28 31 32 31 29 30 31 29 25 23 24 25 27 29 29 26 24 23 21 21 21 19 16 15 14 13 11 10 8 7 6 5 4 3 3 4
15 15 15 15 14 14 15 16 17 19 19 19 19 18 18 18 19 18 18 18 18 18 19 19 20 21 22 23 24 24 22 21 20 20 20 20 21 24 28 30 30 29 25 22 21 21 21 21 22 24 25 25 24 25 26 27 26 23 23 25 28 31 32 30 27 25 24 23 22 21 19 16 15 13 12 10 8 7 6 4 3 5 6 8 9
15 15 15 14 13 14 16 18 20 20 20 19 18 18 18 19 19 19 20 20 19 19 20 19 19 21 22 24 25 25 23 21 20 18 18 20 21 23 25 27 26 26 25 22 20 19 18 18 19 20 19 19 20 21 20 22 23 24 28 31 32 31 29 28 26 25 24 24 23 20 18 16 14 12 10 7 6 6 5 5 6 7 9 10 12
16 15 14 13 14 15 17 18 19 19 19 19 20 21 21 20 19 20 20 19 20 20 20 19 19 20 22 24 26 26 26 23 20 18 18 20 21 22 24 24 24 23 24 23 20 19 19 20 21 20 19 19 19 20 22 26 28 28 28 29 28 26 26 25 24 24 24 23 22 20 17 14 11 10 8 7 7 6 6 6 7 8 9 11 12
14 14 14 14 15 17 17 18 19 20 21 21 21 21 20 19 19 19 18 17 17 19 19 19 19 20 21 22 23 24 26 26 23 19 18 18 20 22 24 23 20 19 21 23 21 20 22 23 23 22 22 22 24 24 25 26 28 27 25 25 25 25 24 23 23 23 22 21 19 17 14 11 10 9 7 7 7 6 5 7 8 9 10 11 11
13 13 14 15 16 18 19 20 21 21 21 21 21 22 21 19 18 19 19 17 16 16 18 20 20 20 21 21 21 22 25 27 25 21 18 17 18 21 23 23 19 17 19 20 20 21 23 24 24 26 28 29 29 28 26 26 27 27 26 25 25 24 22 21 21 20 19 17 15 13 11 10 10 9 7 7 6 4 5 7 8 9 9 10 10
13 14 15 16 17 18 20 20 20 20 20 20 22 23 24 23 21 20 20 19 18 18 19 20 20 19 19 20 20 22 24 24 23 20 19 18 18 19 21 21 19 18 18 18 19 22 24 25 24 26 28 31 31 30 29 30 29 28 26 25 23 21 20 19 18 18 16 14 12 10 9 9 9 8 7 5 4 4 5 6 6 7 8 8 8
12 13 13 14 15 16 17 18 18 18 19 19 20 22 23 24 24 24 23 21 20 21 21 20 19 17 16 17 20 22 23 22 20 19 19 18 17 18 21 21 19 17 17 18 20 23 25 26 26 25 25 27 29 28 28 30 29 27 26 24 22 19 18 18 17 15 13 12 11 10 9 9 9 8 6 4 4 3 3 3 4 4 5 5 7
10 10 10 11 13 14 15 16 16 16 17 18 19 20 20 20 21 24 26 25 23 22 20 19 19 19 18 18 20 21 21 20 19 18 18 18 16 17 18 19 18 16 17 21 23 25 26 28 30 29 27 26 27 28 28 28 28 26 24 23 22 20 18 17 15 13 12 11 10 10 10 10 8 6 5 4 3 2 2 2 2 2 4 5 7
8 8 9 11 12 13 14 14 14 15 17 18 19 19 20 19 19 21 24 26 26 25 23 22 22 23 23 22 20 19 19 18 17 16 17 17 16 15 17 17 15 16 20 23 26 27 28 29 31 31 30 28 28 28 29 28 27 26 24 23 22 21 19 17 15 13 13 12 10 10 10 9 6 5 4 4 3 2 3 3 2 3 5 6 7
7 7 9 11 11 12 12 12 13 16 19 20 20 21 21 20 21 21 22 23 24 26 28 28 27 26 25 24 21 17 16 15 15 14 15 15 14 13 17 18 17 19 21 22 23 24 24 24 25 25 26 27 27 27 29 29 27 26 25 24 23 22 20 17 15 14 12 11 10 10 9 7 5 5 5 5 4 5 5 4 3 4 5 6 7
6 7 9 10 10 11 12 13 15 19 21 21 22 22 22 22 23 23 23 23 23 25 28 30 29 27 24 21 18 16 14 14 13 12 13 14 12 14 19 21 21 22 20 17 17 17 17 18 20 19 20 22 24 25 27 28 27 25 24 24 24 23 21 18 16 14 13 12 11 10 9 7 6 6 6 6 6 6 5 4 4 5 5 6 7
6 7 8 9 11 12 13 14 16 18 19 19 20 20 21 22 22 22 23 23 23 23 26 28 28 27 24 20 17 15 14 13 13 12 12 10 11 17 21 22 24 24 21 19 19 19 17 17 19 19 19 21 23 24 24 24 23 24 24 24 24 23 21 18 17 15 15 14 12 10 9 8 7 6 6 7 7 7 5 4 5 5 5 6 9
7 6 7 9 11 12 13 13 15 16 17 18 18 19 19 20 21 22 22 22 22 22 23 24 24 25 24 21 18 14 12 11 12 13 10 6 13 17 18 19 21 22 21 21 23 23 23 23 23 22 22 24 25 24 23 22 23 25 26 25 24 22 20 19 17 16 15 14 12 10 8 7 6 6 6 8 8 6 5 5 6 5 5 6 8
7 5 6 9 11 11 12 13 14 15 16 17 17 17 17 18 19 20 21 20 19 18 18 19 20 20 20 19 17 13 10 9 8 8 5 6 12 13 13 15 18 19 18 17 17 19 23 26 25 21 21 23 24 24 24 24 25 27 27 26 24 22 21 20 19 17 16 14 11 9 7 6 7 7 8 8 7 6 6 6 5 4 5 7 8
6 4 5 8 10 12 13 13 14 15 16 15 14 14 15 16 17 18 19 17 15 14 14 16 17 15 14 14 14 12 10 8 6 3 1 6 9 8 9 13 16 14 13 13 13 15 20 23 22 20 20 22 25 26 25 25 27 28 27 26 24 23 22 21 19 17 15 13 10 8 7 7 8 9 9 8 7 7 6 5 4 5 6 7 8
6 4 5 6 8 10 12 13 14 15 15 13 13 13 13 14 15 16 17 16 13 12 12 11 11 11 11 10 11 11 9 7 4 1 4 6 5 5 8 12 13 12 12 13 15 18 20 22 22 22 23 25 27 27 26 26 26 27 26 24 23 22 21 19 17 15 13 11 9 7 7 8 8 9 9 9 8 7 5 4 5 5 5 5 7
5 5 6 6 6 8 10 11 12 14 13 12 13 12 11 12 13 14 14 14 12 11 10 10 9 10 10 9 9 8 7 5 3 2 5 6 4 4 7 11 13 14 13 13 15 19 22 23 25 25 27 28 28 27 26 25 25 24 24 23 23 22 20 17 15 13 12 10 9 9 9 9 9 9 9 9 8 5 4 4 4 4 4 6 9
5 5 5 5 4 5 8 9 10 12 12 12 13 12 11 11 12 13 13 11 9 8 9 10 10 10 10 8 7 7 7 7 5 3 5 6 5 6 7 9 12 13 11 10 12 18 23 26 27 28 29 29 28 26 25 24 22 21 21 21 22 21 19 17 14 12 10 10 10 10 10 10 9 9 9 8 7 5 3 2 2 2 3 6 9
4 5 5 3 3 4 6 7 8 10 10 10 12 13 12 12 13 14 14 12 9 7 8 9 10 10 10 10 9 10 11 10 8 7 7 7 8 8 7 8 10 12 11 11 14 20 24 27 30 31 30 28 26 24 22 21 20 19 19 19 20 20 18 15 13 11 9 10 10 10 10 10 10 9 9 8 6 4 3 0 1 3 5 8 9
3 6 7 5 4 4 4 5 7 8 8 8 10 12 13 13 13 14 14 14 12 11 10 10 10 10 11 13 13 14 14 14 13 13 13 13 13 13 13 13 14 15 16 17 20 24 27 29 31 31 29 27 24 22 21 20 19 18 17 16 16 16 14 12 11 10 9 8 8 9 10 11 10 9 9 8 6 5 2 1 5 7 8 8 8
4 6 7 6 6 5 4 5 6 6 7 8 9 11 13 13 13 13 13 13 14 14 13 11 11 12 13 15 16 17 18 18 18 18 18 19 19 19 19 20 20 21 23 25 26 29 31 32 31 29 28 26 23 22 21 19 17 15 13 12 11 11 11 10 10 10 8 7 7 7 9 11 10 9 9 7 6 5 2 3 7 8 6 4 3
3 5 6 8 9 8 6 6 5 5 6 8 9 10 11 11 11 11 12 13 14 14 12 10 11 12 13 15 16 18 20 21 22 23 23 24 25 25 26 27 28 29 30 31 31 31 31 30 28 27 25 23 21 20 18 16 15 13 11 10 10 10 10 10 11 10 9 7 6 6 8 11 11 10 9 7 5 4 1 4 6 5 3 2 2
3 4 5 7 10 10 8 6 6 6 6 7 9 10 11 10 9 10 12 14 14 12 11 11 12 13 14 15 16 17 19 21 23 24 25 26 27 27 28 29 29 30 30 29 28 27 25 24 23 22 20 18 17 17 16 15 14 13 12 11 10 9 10 10 11 10 8 7 6 7 10 11 10 10 8 6 3 2 3 6 5 4 4 4 3
4 4 4 6 9 11 10 7 7 8 8 7 8 9 9 9 9 10 12 13 13 12 12 13 14 13 14 15 16 16 18 19 20 20 21 21 21 20 20 20 20 20 20 20 20 19 19 19 19 18 17 16 15 14 14 13 13 12 12 11 10 9 9 10 10 9 8 7 7 9 11 11 9 9 7 4 3 1 4 6 5 4 4 5 4
5 4 3 5 8 10 10 8 7 7 7 7 8 8 8 7 8 10 10 11 11 12 13 13 14 14 15 16 16 17 18 18 18 18 18 17 17 16 16 16 16 17 17 18 18 18 19 19 18 17 16 14 13 13 12 11 11 10 10 10 9 9 9 10 10 9 8 8 8 10 11 10 8 7 5 4 3 2 3 5 3 2 4 5 5
7 6 4 5 5 7 8 8 7 7 7 7 7 7 6 7 8 9 9 10 11 12 12 13 13 14 15 17 18 19 19 19 18 18 18 18 17 17 17 17 18 18 19 19 19 20 19 18 16 15 14 13 12 11 10 9 9 9 9 9 9 8 8 9 10 10 9 9 9 9 9 8 7 5 4 4 3 2 3 3 1 1 2 3 5
Wind_Direction
171 174 176 178 183 186 183 181 180 177 173 174 174 171 169 168 168 169 171 175 179 180 184 186 181 176 171 167 167 167 169 174 174 170 168 166 165 164 157 150 145 144 144 142 140 136 128 125 131 137 139 138 138 143 156 176 193 200 201 197 190 182 177 167 149 155 178 185 179 174 174 176 179 179 174 158 144 148 157 169 197 247 32 38 36
164 170 173 175 180 184 184 182 179 175 172 174 176 172 170 169 169 170 171 173 179 184 184 181 175 173 174 174 174 171 173 179 182 178 172 168 168 165 157 151 149 148 149 149 149 148 140 133 133 137 139 139 138 139 141 147 167 188 196 197 190 183 182 174 158 154 165 180 183 181 184 193 197 198 201 195 163 173 215 231 226 207 126 124 71
161 165 164 161 147 120 132 163 167 169 173 177 177 174 172 172 171 172 172 174 179 179 172 168 171 173 177 177 175 175 178 181 181 179 177 175 175 173 166 159 156 157 158 156 156 157 155 149 146 145 143 141 141 144 148 149 148 164 182 188 183 178 183 184 172 161 160 172 184 189 194 204 211 211 212 211 202 218 251 234 181 160 145 129 73
154 158 152 139 123 108 103 137 157 165 172 177 177 175 174 175 175 172 173 175 178 177 171 170 173 174 173 175 178 181 184 183 182 182 183 182 179 177 173 167 166 167 167 164 163 162 161 160 159 159 154 144 142 145 150 152 151 152 163 172 175 176 183 191 187 174 167 171 184 192 198 208 218 219 216 216 216 225 216 149 144 143 133 105 59
151 160 153 139 137 143 155 167 168 164 172 178 176 177 180 180 179 178 178 181 184 184 182 182 185 183 179 179 183 187 189 188 187 188 188 185 181 179 177 176 175 175 173 171 169 166 164 162 162 167 166 155 148 151 154 154 154 155 159 166 173 178 183 189 191 185 177 177 183 191 199 208 217 220 218 215 203 171 148 142 137 132 121 90 52
153 156 154 150 149 151 161 165 154 146 173 181 173 180 188 186 185 185 186 190 193 196 197 194 194 193 188 183 182 188 191 191 191 191 193 193 190 188 188 189 188 186 185 183 178 174 170 162 159 164 169 164 159 160 162 163 163 163 165 169 174 179 183 187 190 189 186 184 187 192 198 207 214 217 217 215 203 177 161 152 143 138 121 60 30
148 147 147 153 166 174 169 164 153 156 180 182 175 182 189 189 192 195 196 197 199 203 203 200 202 201 195 189 186 189 192 196 199 198 197 195 191 191 193 192 189 188 191 194 193 190 184 173 166 165 169 170 170 171 174 173 171 171 173 175 176 179 184 189 193 193 191 189 192 197 202 209 217 216 207 203 195 183 178 172 159 145 68 10 9
136 141 148 157 170 173 168 172 177 175 175 176 178 185 187 190 201 205 202 202 207 206 199 198 205 205 200 197 194 195 198 200 203 202 197 191 189 189 190 188 188 191 195 201 204 204 201 194 185 179 180 182 183 185 188 185 179 176 177 178 178 178 180 186 193 196 196 195 198 205 210 212 207 192 179 177 175 172 179 182 163 115 30 16 11
122 127 142 153 158 159 165 177 182 175 162 157 167 179 184 196 218 222 211 205 205 202 198 200 207 205 202 202 200 200 202 200 199 199 197 194 193 194 194 194 197 200 202 206 210 210 210 207 203 198 195 196 196 196 195 195 193 190 184 182 182 182 181 183 189 190 191 194 200 208 211 198 179 171 165 168 170 164 166 169 141 57 19 18 13
106 106 116 132 140 147 158 167 171 161 132 128 154 176 178 184 220 225 214 210 207 199 200 205 206 205 205 206 206 206 205 202 198 199 202 203 204 204 203 203 205 205 207 208 209 210 211 211 211 210 208 206 205 201 196 197 199 199 196 193 192 193 191 190 191 187 182 182 187 197 198 181 172 174 170 169 173 167 162 160 109 13 358 2 6
85 86 89 95 102 110 119 135 147 140 131 167 195 199 187 184 205 215 204 209 210 205 207 214 215 215 214 214 214 212 210 208 204 204 207 209 210 211 212 212 212 209 209 208 209 211 213 212 213 215 215 213 210 207 205 202 201 201 202 202 204 206 205 201 198 192 186 181 178 185 189 178 172 174 170 165 164 164 162 154 4 353 354 4 14
76 78 78 74 72 73 73 85 103 101 126 192 216 227 205 201 219 227 198 190 205 204 207 215 219 226 232 233 231 221 215 214 212 210 211 211 214 216 216 217 219 218 215 213 214 217 217 216 215 216 218 218 216 216 216 213 211 209 207 208 211 214 214 212 209 203 199 193 184 184 188 180 171 169 170 166 163 162 158 36 359 0 10 21 25
72 73 74 73 71 70 69 67 65 61 56 64 130 212 205 209 228 240 220 192 234 214 208 215 220 225 233 239 241 233 224 220 219 217 215 214 217 220 221 221 223 223 223 222 223 225 224 223 220 219 220 220 220 221 222 221 220 218 216 215 216 218 219 221 222 219 216 209 199 193 192 189 179 173 173 173 171 168 146 70 21 32 30 29 35
66 65 65 64 63 64 66 65 65 65 62 62 69 74 84 118 276 296 279 275 284 273 259 257 251 245 245 247 248 246 237 228 225 224 223 221 222 223 224 225 225 226 226 226 227 227 229 228 226 224 222 220 221 222 223 223 223 223 224 224 223 222 221 222 223 224 223 220 213 202 193 193 189 181 177 177 177 180 176 142 51 53 48 54 73
60 58 57 55 53 53 55 57 57 55 53 54 57 55 52 50 45 38 29 313 284 277 270 272 272 266 261 258 258 257 256 251 243 235 232 231 230 229 228 228 227 228 228 228 229 229 231 233 232 230 226 222 222 222 222 223 224 224 226 225 223 223 221 219 218 216 214 215 213 204 192 188 187 182 175 172 180 244 268 74 87 91 85 88 98
51 49 47 44 41 41 41 42 43 41 40 40 40 38 35 34 33 33 30 23 11 356 331 303 291 284 276 271 269 266 263 263 262 256 248 242 238 237 237 234 232 232 231 230 230 229 231 232 232 231 228 225 224 223 223 225 222 220 224 223 221 221 219 217 216 213 213 214 211 203 190 181 179 177 171 170 195 230 149 116 110 107 97 93 92
43 43 39 34 30 28 26 25 24 23 23 23 23 21 20 18 16 13 8 7 9 6 358 346 330 313 295 283 279 276 273 270 269 267 262 256 251 248 246 243 239 238 237 235 231 230 231 233 234 233 228 226 227 225 225 228 222 218 224 223 217 216 215 215 215 209 205 206 201 189 179 172 171 169 158 148 141 135 137 133 127 113 76 82 79
44 43 40 36 31 27 23 19 16 13 11 10 8 5 5 5 4 2 359 354 351 347 343 337 332 328 319 303 288 282 280 279 276 272 268 266 262 258 255 252 247 243 240 239 237 235 234 236 238 236 231 232 235 231 231 234 227 220 223 219 211 210 208 205 205 196 185 184 178 169 164 159 154 148 141 135 133 135 140 141 146 134 77 80 70
47 46 43 40 38 35 31 28 24 20 15 10 6 1 357 354 351 351 351 349 345 340 336 329 321 316 317 316 307 297 292 289 285 280 275 271 267 263 260 255 252 249 246 243 241 241 240 238 239 239 238 238 239 237 240 242 235 225 221 215 209 209 205 202 199 190 181 179 171 162 157 150 145 143 140 137 139 146 155 150 144 111 81 72 53
47 48 45 41 39 36 34 31 30 27 22 16 11 6 359 352 347 344 343 341 338 335 334 331 324 314 309 310 309 307 305 300 293 287 284 279 273 268 262 256 253 254 251 248 245 243 243 243 242 244 245 243 242 242 242 243 239 229 221 215 214 211 202 197 195 186 179 176 170 160 153 148 147 148 149 153 158 163 165 136 90 57 59 61 54
46 47 42 37 34 30 26 24 22 20 16 11 9 7 3 358 353 349 345 341 337 333 330 328 325 318 311 309 309 309 309 305 297 290 287 284 279 273 266 260 259 258 253 250 248 245 246 247 248 249 248 246 247 245 241 242 241 233 226 223 220 210 195 188 187 180 174 171 163 155 151 151 154 157 158 159 153 143 128 106 84 59 55 66 67
36 32 27 25 23 19 15 12 9 8 6 4 3 4 5 4 1 360 357 351 346 340 334 331 329 325 318 313 313 315 314 311 303 293 286 283 282 277 270 266 265 261 254 251 250 248 249 250 251 251 249 247 247 244 244 246 242 231 227 223 212 198 187 183 179 172 167 164 158 152 152 153 152 150 145 139 129 121 115 106 99 87 83 85 75
21 17 14 13 10 8 7 5 3 3 2 2 2 2 2 1 359 0 0 358 356 352 346 340 336 333 327 319 315 316 315 313 309 299 288 282 281 278 271 267 266 262 257 256 257 255 254 254 254 252 250 249 247 244 244 245 234 222 219 212 198 189 183 175 171 167 162 159 154 149 148 148 144 137 132 130 125 123 123 118 109 107 107 97 63
8 6 6 4 1 1 1 0 0 1 0 360 0 359 358 356 354 355 356 356 357 355 350 346 341 336 332 326 320 317 314 314 314 308 295 284 281 281 274 265 261 261 259 259 261 262 261 259 258 255 252 250 249 246 243 239 228 217 210 200 190 185 177 169 165 162 157 154 150 144 142 142 138 132 129 129 129 128 124 116 112 112 104 79 39
1 2 3 2 1 0 358 356 357 357 355 353 353 353 353 351 349 349 349 350 351 350 347 345 342 339 335 332 328 323 316 313 314 314 305 288 279 282 278 267 261 260 259 258 258 260 261 260 259 256 251 248 245 239 232 224 215 206 203 196 184 176 172 167 163 160 156 152 147 140 136 134 131 128 128 129 129 128 122 113 108 91 52 18 359
4 4 3 3 1 358 356 354 351 348 346 347 348 348 349 347 345 344 343 342 342 342 340 340 341 339 335 333 332 328 321 315 313 316 314 300 284 279 277 271 265 260 256 254 253 253 255 256 251 245 240 234 229 223 215 207 199 195 194 189 178 171 169 165 163 162 157 150 144 138 132 131 128 125 127 129 125 119 110 93 58 21 2 349 344
1 360 360 359 357 353 350 348 347 346 348 351 351 349 348 347 344 341 338 336 334 332 331 333 337 337 333 331 332 330 325 318 312 312 317 314 304 292 282 278 275 266 252 242 243 247 245 235 225 222 222 220 218 214 197 181 177 178 177 174 170 166 166 166 166 163 156 148 142 135 131 131 128 124 124 122 111 96 71 36 20 14 4 355 352
355 356 358 357 353 348 346 345 345 346 347 346 342 340 340 341 340 336 332 329 326 324 323 324 328 330 327 327 329 328 327 323 315 308 308 310 309 305 296 289 287 276 254 236 230 229 221 209 203 207 213 209 201 190 172 161 161 165 165 162 159 159 161 161 158 154 150 145 140 135 133 133 128 123 118 106 93 78 49 24 20 18 9 1 1
355 357 357 355 350 346 344 344 342 339 338 335 333 331 331 332 331 327 324 322 319 317 316 317 319 320 319 319 323 324 325 325 318 306 298 295 297 299 296 291 288 276 254 237 224 212 203 199 198 198 196 187 176 167 161 156 155 156 156 154 152 153 155 154 150 147 146 144 140 136 134 129 124 122 117 104 90 69 37 19 14 11 6 4 3
352 352 350 348 348 346 343 341 338 335 334 332 330 329 328 327 326 324 322 321 316 312 311 312 313 312 308 309 312 313 316 322 319 304 288 284 287 293 293 289 280 264 245 233 221 208 198 193 190 185 179 172 167 162 158 156 152 150 150 150 150 152 152 151 149 146 144 143 140 134 130 126 125 124 118 107 91 61 26 13 12 11 9 7 4
351 348 345 342 343 343 340 339 338 336 335 333 330 326 324 323 323 322 322 320 316 312 312 312 312 311 306 303 304 302 305 315 318 302 284 277 281 288 291 284 271 257 245 232 215 202 194 187 181 177 172 167 165 162 160 157 153 149 148 147 149 151 151 149 149 147 144 140 134 130 132 133 130 125 119 105 82 48 23 15 18 21 15 10 3
339 336 336 335 335 337 336 337 337 336 334 332 328 324 321 320 319 319 320 319 316 315 314 313 313 314 310 305 302 300 301 309 312 301 284 276 278 285 284 275 264 254 244 228 208 196 191 183 175 172 170 166 164 163 160 155 151 149 148 146 146 150 152 150 150 148 144 139 134 134 136 133 126 120 111 94 74 57 42 34 33 26 16 8 355
323 324 330 331 330 331 332 333 335 335 333 329 326 323 321 316 313 314 317 319 320 318 318 318 319 320 319 313 305 300 300 305 308 298 284 279 282 281 271 262 254 241 224 212 203 194 187 181 177 175 172 169 166 164 161 157 154 153 151 149 149 151 151 148 147 144 140 138 137 136 133 127 119 110 105 101 90 78 79 91 84 41 18 9 356
319 325 334 332 327 326 329 333 335 332 327 324 323 324 323 317 310 308 310 314 317 317 316 317 319 321 322 321 315 306 301 305 308 298 283 283 288 275 252 238 230 218 209 207 203 195 187 183 180 176 175 173 170 167 164 161 158 156 154 152 151 150 149 148 147 143 139 137 135 134 133 127 115 109 121 134 138 137 138 138 119 50 24 19 11
327 335 334 330 326 327 332 335 331 325 321 321 321 322 321 319 315 310 307 306 306 307 309 312 316 319 320 320 320 317 309 307 311 301 285 285 287 258 225 209 200 197 198 201 200 193 185 180 176 173 173 176 175 169 163 160 158 157 155 153 153 152 152 152 149 144 142 141 140 139 138 133 128 132 141 151 159 156 144 126 82 40 31 28 20
338 338 330 330 335 336 332 326 322 320 322 323 322 318 317 317 315 312 310 306 302 301 304 309 315 320 321 322 325 325 317 313 317 308 291 287 275 234 211 203 196 190 187 189 189 184 176 172 170 169 172 178 179 173 166 161 159 159 157 157 157 156 155 154 150 147 146 144 142 140 136 131 133 140 145 149 149 140 125 97 63 45 37 25 10
341 339 336 343 346 339 330 326 325 327 329 329 325 321 320 319 318 315 313 310 307 306 306 309 315 321 324 328 332 328 323 326 329 321 306 284 244 219 213 208 197 186 179 179 182 180 173 171 171 170 177 185 185 176 168 164 162 161 161 162 161 158 155 153 151 149 146 141 136 133 129 124 125 131 141 143 133 117 101 78 54 43 32 13 360
338 341 345 350 348 340 336 337 338 338 338 337 333 329 325 324 324 323 319 314 312 311 309 312 317 320 324 331 335 333 330 334 334 329 317 254 210 212 218 210 193 182 178 180 182 180 176 175 176 179 186 191 186 175 169 170 169 167 165 162 158 155 153 151 149 148 146 140 133 130 127 126 127 132 137 137 125 103 80 61 47 38 24 8 356
342 341 338 344 349 350 350 352 352 349 344 342 341 338 335 336 336 333 327 323 321 320 321 322 323 323 326 334 341 343 339 330 325 328 315 211 199 210 220 206 188 178 176 176 180 181 179 178 181 188 193 190 182 176 175 176 173 168 164 159 156 154 153 151 148 147 145 140 134 132 136 142 144 142 139 132 116 91 75 67 51 21 0 353 344
344 336 326 338 352 358 358 1 3 1 356 354 354 353 353 355 354 350 347 346 343 339 336 331 328 329 334 339 344 347 340 324 315 322 226 189 188 193 197 189 179 172 172 174 177 181 181 182 188 194 192 183 175 172 172 171 168 164 161 159 156 154 151 150 149 146 144 142 140 144 155 159 154 148 142 129 109 94 85 69 31 3 354 347 338
335 326 316 328 346 355 1 8 11 11 11 13 13 10 7 6 6 7 9 11 8 1 354 347 346 351 353 350 351 353 347 336 336 63 136 151 162 174 178 175 169 166 169 171 167 163 167 176 185 186 177 169 164 161 160 161 163 162 160 157 155 152 149 149 149 146 145 146 149 156 160 157 150 146 138 125 109 98 81 37 7 358 352 342 339
327 317 313 322 340 356 7 14 16 17 23 28 26 21 15 10 11 17 21 20 18 14 11 7 6 5 1 356 354 357 5 16 32 116 136 130 132 164 178 175 169 160 156 160 161 159 163 171 177 175 168 162 158 156 155 158 162 161 158 156 154 152 150 149 149 150 151 151 155 158 154 145 137 132 125 119 113 101 63 27 23 24 8 351 345
328 323 315 312 327 359 12 15 17 21 29 36 36 32 28 26 29 33 33 30 27 22 16 12 8 8 12 17 18 24 41 54 64 111 143 139 141 159 173 177 173 164 157 159 166 169 170 169 167 163 160 158 157 156 158 161 163 162 158 155 153 152 151 151 152 156 160 160 159 160 155 146 137 128 124 127 124 102 67 51 70 60 13 350 343
342 359 1 340 329 352 4 9 16 23 31 41 46 44 41 39 42 45 45 44 42 35 27 26 25 25 32 44 52 57 64 72 84 102 113 116 123 135 146 155 162 165 164 160 161 165 165 161 154 150 150 151 152 153 155 159 162 162 159 156 153 150 150 153 157 164 170 169 164 161 157 153 144 134 133 134 121 96 89 166 279 310 325 331 334
26 33 37 34 15 0 0 7 14 19 26 37 47 48 44 41 45 51 55 57 57 53 48 47 49 51 57 65 73 79 83 88 95 100 102 106 113 121 128 134 139 142 142 142 147 152 152 149 145 143 142 142 143 143 145 148 151 152 153 154 152 150 150 155 162 167 172 174 168 162 160 159 151 140 138 134 113 102 126 274 317 327 330 333 335
63 52 51 45 31 22 21 18 12 14 24 36 44 46 42 40 45 55 65 70 67 59 55 57 64 69 74 79 84 89 93 95 97 99 102 105 110 114 120 125 128 128 126 129 135 139 139 137 137 135 133 133 134 135 138 140 140 139 139 141 143 144 147 155 163 165 164 164 163 162 166 166 158 145 140 135 121 118 135 323 336 346 352 349 339
84 65 59 47 37 35 36 28 21 24 36 44 48 47 41 37 44 60 78 84 74 60 58 70 79 81 85 89 92 94 95 97 98 100 102 104 106 108 110 111 113 114 114 116 119 122 123 124 125 124 124 126 128 130 132 132 130 129 129 128 129 135 143 151 157 157 155 153 153 158 165 165 158 147 141 138 135 130 75 350 353 11 30 16 333
120 89 67 50 44 46 46 43 43 47 50 53 54 48 40 37 47 67 85 90 82 72 76 87 90 89 92 96 98 101 102 103 102 103 104 105 106 106 106 106 106 107 107 108 109 112 114 116 117 118 122 126 128 128 128 127 126 126 123 119 119 126 138 147 150 149 147 143 142 149 155 153 149 146 144 140 137 110 27 18 35 70 54 16 358
144 123 87 63 57 57 59 61 62 60 61 66 64 51 41 43 58 76 89 94 94 94 97 98 97 97 99 101 103 106 109 109 109 109 109 109 109 109 109 108 107 107 106 105 106 109 111 113 116 119 124 127 127 126 126 125 125 124 121 117 115 118 128 140 145 143 139 135 138 150 155 150 145 148 150 145 151 126 29 31 62 85 33 359 344
165 153 110 83 73 67 66 69 73 72 73 79 74 58 46 52 70 85 96 101 102 104 105 105 106 107 107 106 107 108 109 110 111 112 113 113 112 112 111 110 110 110 109 109 111 114 117 119 122 124 126 125 123 122 122 121 121 122 123 121 118 115 120 132 139 138 134 132 138 151 156 151 145 147 149 149 159 140 38 36 59 59 3 344 335
177 168 136 108 94 81 73 73 75 75 76 81 83 75 64 65 76 88 99 106 109 109 109 111 114 115 115 115 114 113 112 112 113 114 115 116 117 117 117 116 115 115 117 119 122 123 125 128 129 127 126 124 121 119 116 114 114 118 124 127 126 118 117 128 137 136 133 134 139 147 151 150 147 145 145 147 150 112 43 43 46 336 321 313 332
Height
798 799 801 803 805 808 809 811 812 814 815 816 817 818 820 821 823 824 824 825 826 826 826 826 826 826 826 827 828 828 829 830 830 831 831 832 833 833 834 834 834 835 835 835 836 836 837 837 838 839 840 841 843 844 845 846 847 848 849 850 852 852 852 853 854 855 857 859 860 861 861 862 863 863 864 864 865 865 866 866 867 867 867 868 868
800 801 803 805 807 808 809 810 812 813 815 816 817 818 820 821 823 824 825 825 826 827 827 827 827 827 827 827 828 829 829 830 830 831 831 832 833 834 835 835 835 836 836 836 836 837 838 838 839 840 841 841 842 844 845 845 846 847 847 849 851 852 852 853 855 856 857 859 860 861 861 862 862 863 863 864 864 865 865 866 866 866 867 867 867
800 802 804 806 807 809 811 812 813 814 815 816 818 819 820 822 823 824 824 825 827 827 828 828 828 828 828 828 828 829 829 830 830 831 832 832 833 834 836 836 836 836 836 837 837 837 838 839 840 841 841 841 842 843 844 845 846 846 847 849 850 852 853 854 854 855 857 858 860 860 861 861 862 862 863 863 864 865 865 865 865 866 867 867 867
800 803 805 806 807 810 813 815 816 816 817 817 818 820 821 822 823 824 824 825 826 827 828 828 829 829 829 829 829 829 829 830 831 832 832 833 834 834 835 836 837 837 837 837 837 838 838 839 840 840 841 841 842 843 844 845 845 846 847 849 851 852 853 854 854 854 856 857 859 859 860 860 860 861 862 863 864 864 865 865 865 866 866 867 867
800 803 805 806 809 811 813 816 817 818 820 821 820 821 822 823 823 824 825 825 826 827 828 828 829 829 829 829 829 829 830 831 831 832 833 833 834 835 835 836 837 837 838 838 839 839 839 840 840 841 841 841 842 843 844 845 846 846 847 849 850 851 852 853 853 853 854 855 857 858 859 859 860 860 861 862 863 864 864 865 865 866 866 866 866
800 802 804 806 809 811 813 816 817 818 822 823 821 822 823 823 824 825 825 826 827 827 828 828 828 829 830 830 830 831 831 832 833 833 834 834 834 835 836 837 837 838 839 839 840 840 840 841 841 841 841 842 843 844 845 846 846 847 848 849 850 851 851 852 852 853 853 854 855 856 857 858 859 859 860 860 862 862 863 864 865 865 866 866 866
801 803 805 806 810 812 813 815 818 820 822 822 821 822 824 824 825 826 826 827 827 827 827 828 828 829 830 830 831 831 832 833 834 834 834 834 835 836 836 837 838 839 839 840 840 841 841 841 841 842 842 843 844 845 846 846 847 847 848 849 849 850 851 852 852 852 853 854 854 855 856 857 857 858 858 859 860 861 862 863 864 864 865 865 864
802 804 805 807 809 811 811 814 817 819 820 820 820 821 823 824 826 827 827 827 827 827 828 828 828 829 829 830 831 832 832 833 834 835 835 835 835 836 836 837 838 839 840 840 841 841 842 842 842 842 843 844 844 845 845 846 846 847 848 849 849 850 850 851 851 852 852 853 853 854 855 855 856 856 857 858 859 860 861 862 862 863 863 864 864
803 805 807 807 809 810 812 814 816 818 818 819 820 821 822 824 826 828 827 827 828 828 828 828 828 828 829 829 831 831 832 833 834 835 836 836 836 836 836 837 838 838 839 840 840 841 841 842 842 843 843 844 844 844 845 846 846 847 848 849 849 849 850 850 851 851 851 852 852 853 854 854 855 855 856 857 858 859 860 861 861 862 863 863 863
805 807 808 809 811 812 814 815 816 817 818 821 823 823 823 825 827 828 827 827 827 827 828 829 828 829 829 829 830 831 832 833 833 834 835 836 836 836 837 837 838 838 838 839 839 840 841 842 842 843 843 844 844 845 845 845 846 846 847 848 848 848 849 849 850 850 850 851 851 852 852 853 854 855 855 856 857 857 858 859 860 861 861 862 862
807 809 811 812 813 814 815 816 817 818 820 822 824 824 823 824 827 828 827 826 827 827 828 828 828 829 829 829 830 830 831 832 833 834 834 835 836 836 837 837 837 838 838 838 838 839 840 841 841 842 842 843 843 843 844 844 845 846 846 847 847 848 848 848 848 849 849 849 850 850 851 851 853 853 854 855 856 857 857 858 858 859 860 861 861
810 812 813 815 815 816 817 818 819 820 821 822 823 824 824 825 827 829 827 826 826 826 827 827 828 828 829 829 829 830 830 831 831 832 833 834 834 835 836 837 837 837 837 838 838 838 838 839 840 840 840 841 841 842 842 843 843 844 845 846 846 847 847 847 847 847 848 848 849 849 849 850 851 852 853 854 855 856 856 857 858 858 859 859 860
813 814 816 817 818 818 819 819 820 821 823 823 824 825 827 827 828 828 826 825 826 827 827 827 828 828 829 829 829 829 830 830 831 831 832 832 833 833 834 835 835 836 836 837 837 837 838 838 838 839 839 839 839 840 840 840 841 842 843 844 845 845 846 847 847 847 847 847 847 848 848 849 850 851 852 853 854 855 856 857 857 857 858 858 858
816 817 818 820 821 821 821 821 822 823 824 824 825 826 827 827 827 826 824 825 826 827 827 827 827 828 828 829 829 829 830 830 830 831 831 831 831 831 832 832 833 833 834 835 835 836 836 837 836 837 837 837 837 837 838 838 839 839 840 841 843 843 844 845 845 846 846 846 846 846 847 848 849 850 851 852 853 855 855 856 856 856 857 857 858
818 819 820 821 822 823 823 823 824 824 824 825 825 825 825 825 825 825 825 826 827 827 826 826 827 827 827 828 828 828 828 829 830 830 830 830 830 830 830 830 830 830 831 832 833 834 834 834 834 834 834 834 835 835 835 836 836 837 838 839 840 841 842 843 843 844 844 845 845 845 846 847 849 849 851 852 853 854 854 854 854 855 856 857 857
820 820 821 822 823 823 824 824 824 825 825 825 824 824 824 824 824 825 825 826 826 825 825 825 826 826 826 826 826 826 826 827 828 828 829 829 829 828 828 828 828 828 828 829 830 831 832 832 832 832 832 833 833 833 833 833 833 835 836 837 837 838 839 841 842 842 843 844 844 844 845 846 848 849 850 850 851 852 852 852 853 854 855 856 856
824 823 823 823 822 822 822 822 822 823 823 823 823 824 824 824 824 824 824 823 823 823 823 823 823 824 824 825 825 825 825 825 826 826 826 827 827 826 826 826 825 826 826 826 827 828 828 829 830 832 834 834 833 832 832 831 831 833 835 835 835 836 837 838 840 841 842 843 843 843 844 846 847 848 849 849 850 850 850 851 852 853 854 854 854
827 826 826 826 825 824 823 823 822 822 822 822 822 823 823 823 823 823 823 823 822 822 822 822 822 822 822 823 823 823 823 823 824 824 824 824 824 824 824 823 823 823 823 824 825 825 826 827 827 829 832 833 831 830 829 828 828 830 832 831 832 833 834 835 837 838 840 842 842 842 844 845 846 847 848 848 849 849 850 850 851 852 852 852 853
828 828 829 829 828 828 827 827 826 826 825 825 824 823 823 822 822 823 822 822 822 822 822 821 821 821 821 821 821 821 820 820 820 821 821 822 821 821 821 821 820 820 821 821 822 822 823 824 824 824 826 827 827 827 827 825 824 825 827 828 829 830 831 832 834 835 837 841 842 842 843 844 845 846 847 847 847 848 849 849 850 850 851 851 852
830 830 830 830 830 830 830 830 829 829 828 828 827 826 824 823 822 822 822 821 821 820 820 819 818 818 818 818 818 818 817 816 816 817 817 818 818 818 818 818 817 817 817 818 818 819 820 820 820 821 821 822 822 823 823 822 820 821 822 823 824 825 828 830 832 833 835 838 840 841 842 843 844 845 845 846 846 847 848 849 849 849 849 850 850
829 830 830 830 831 831 831 831 831 831 831 830 829 829 827 826 825 824 823 822 821 820 819 818 816 815 815 815 814 814 814 813 813 813 813 814 814 814 814 814 814 814 814 814 815 816 816 817 817 817 818 818 819 819 819 818 817 817 817 818 819 821 825 829 831 832 834 836 839 840 840 841 842 844 844 845 846 846 847 848 848 848 848 849 849
828 828 829 829 830 830 831 831 831 831 831 831 830 830 829 829 828 827 826 825 823 822 820 818 816 814 813 812 811 811 811 811 810 810 810 810 811 810 810 810 810 810 810 811 811 811 812 813 813 814 815 815 815 815 816 816 815 814 814 815 817 820 822 826 829 831 833 836 837 837 838 839 840 842 843 844 845 846 846 847 847 847 848 848 848
829 829 829 830 830 830 831 831 831 830 830 830 830 829 829 829 828 827 827 825 824 823 821 819 817 814 812 811 810 809 809 808 808 807 807 807 807 807 807 807 807 807 807 806 807 807 808 809 810 811 812 812 812 812 813 813 812 812 813 815 818 819 820 823 827 829 832 834 835 835 836 838 839 840 842 843 844 845 845 846 846 847 847 847 848
830 831 830 831 831 831 831 831 830 830 829 829 828 828 827 827 826 826 825 825 823 822 821 819 817 815 813 811 809 808 807 806 805 805 804 804 804 804 804 804 804 804 803 803 803 804 805 806 807 808 809 809 808 809 809 809 810 810 812 813 815 817 819 822 825 827 830 832 833 834 836 836 837 838 840 841 842 843 844 845 846 846 847 847 847
832 832 831 831 831 831 831 830 830 830 829 829 828 827 827 826 825 825 824 823 823 822 820 819 817 815 813 811 808 807 806 804 803 802 802 801 801 800 801 801 801 801 801 800 801 801 802 803 804 806 806 805 805 805 805 805 806 809 812 813 813 815 817 820 823 826 828 830 831 833 834 835 836 837 838 839 840 842 843 844 845 845 846 847 847
833 833 832 832 832 831 831 830 830 829 829 828 828 827 827 826 825 824 823 822 821 820 819 818 816 814 812 810 808 806 804 803 802 801 800 799 798 798 798 798 798 798 798 798 798 799 800 801 802 803 803 803 803 803 802 803 804 807 810 812 812 813 815 818 821 823 826 828 830 831 832 834 835 836 837 838 840 841 842 843 843 844 844 845 845
833 833 832 832 831 831 830 829 829 828 827 827 826 826 825 824 823 822 821 820 819 818 817 815 814 812 810 808 806 804 802 801 800 800 799 798 797 797 796 796 797 797 795 795 795 796 797 798 800 801 802 802 803 803 803 804 804 806 809 810 810 812 815 817 819 821 824 826 828 829 831 833 834 835 836 838 839 840 841 841 842 842 842 842 842
832 831 831 831 830 830 829 828 827 827 826 825 825 824 823 822 821 820 820 819 817 816 815 813 812 811 809 807 804 802 800 799 799 798 797 797 796 795 795 794 794 795 795 793 792 793 795 796 798 799 800 802 803 804 804 804 804 807 810 810 809 812 816 818 820 821 823 824 826 828 830 831 833 834 835 836 837 839 840 840 840 841 841 840 841
831 831 830 830 829 828 828 827 826 825 824 823 823 822 822 821 820 819 818 817 816 815 813 812 810 809 807 806 804 801 798 797 797 796 795 794 794 793 793 792 792 793 795 794 792 792 793 794 795 797 798 800 802 803 805 805 805 807 810 811 811 814 817 819 820 821 822 823 825 827 829 830 832 833 834 835 837 838 839 839 839 839 839 840 841
832 831 831 830 829 828 827 826 825 824 823 821 820 819 819 819 818 817 815 814 814 813 811 810 809 807 806 804 803 801 798 796 795 793 792 792 791 790 790 790 790 790 792 793 792 792 792 793 794 795 796 798 800 802 804 806 806 807 809 811 813 815 818 819 821 821 822 823 824 826 828 829 831 833 834 835 836 837 838 838 838 838 839 839 840
832 832 831 830 829 828 827 826 824 823 822 821 819 817 816 815 815 814 813 812 811 810 809 808 806 805 804 802 800 799 796 795 793 791 789 789 788 787 787 788 788 788 789 790 790 791 791 792 793 795 795 796 798 801 803 804 806 807 809 811 814 816 818 820 821 822 823 823 824 826 827 829 830 832 833 834 836 836 837 837 837 838 838 839 840
833 832 831 830 829 828 827 826 824 823 821 820 819 817 815 812 811 810 810 809 808 807 806 805 803 803 801 800 798 796 794 792 790 789 787 786 785 785 785 786 786 787 787 788 789 789 790 791 792 794 795 796 798 800 802 803 804 807 808 810 813 817 819 820 822 822 823 824 825 827 828 829 830 831 832 834 835 836 836 837 837 837 838 838 839
833 832 831 831 830 828 827 826 824 822 821 819 818 816 815 813 810 808 806 805 805 804 803 802 801 800 798 797 796 794 792 790 788 786 785 784 783 783 783 784 785 785 786 786 787 788 789 789 790 792 794 796 797 800 802 803 804 806 808 811 814 818 820 821 823 823 824 825 826 827 828 829 830 831 832 833 834 835 836 836 837 837 837 838 838
833 832 831 830 829 827 826 825 823 821 820 818 817 815 814 812 811 808 805 803 800 799 799 798 798 797 795 794 792 791 789 788 786 784 783 782 781 781 782 783 784 784 784 785 785 785 786 788 789 790 793 795 797 799 801 802 804 806 809 812 815 818 820 822 823 824 825 826 827 828 828 829 829 830 832 833 834 835 836 836 837 837 837 837 837
832 831 830 829 828 826 825 824 822 820 818 817 816 814 812 810 809 807 805 803 800 797 794 794 794 794 792 791 789 787 786 785 783 782 780 779 779 780 781 781 782 783 783 784 784 785 786 788 789 791 792 794 797 800 801 801 803 806 809 812 815 818 820 822 823 825 826 826 827 828 828 829 829 830 832 833 834 835 835 836 836 836 836 836 836
831 830 829 828 827 826 824 822 821 819 817 816 814 812 811 809 807 805 803 801 800 797 794 791 790 790 789 788 786 785 783 782 781 779 778 778 778 779 779 779 779 780 782 783 784 786 788 789 791 792 794 796 799 802 802 802 804 807 810 812 815 817 820 821 823 824 825 826 827 827 828 828 829 831 832 833 834 835 835 836 836 836 836 836 836
830 829 828 827 826 825 823 822 820 818 816 815 813 811 809 808 806 804 802 800 798 796 794 791 789 787 785 784 784 782 781 780 779 778 777 777 778 779 779 778 778 779 781 782 783 786 788 790 792 794 797 800 801 802 804 806 807 809 811 813 815 817 819 821 822 823 824 825 826 827 828 829 830 831 832 834 835 835 835 835 835 835 835 836 836
830 829 828 827 826 824 823 821 819 817 816 814 812 810 808 806 804 802 801 799 797 796 793 791 789 787 785 783 782 781 779 778 778 777 776 777 778 779 779 779 780 781 781 781 782 784 786 789 791 794 798 800 802 803 805 809 811 812 812 814 816 817 819 820 821 822 824 825 826 827 828 829 830 832 833 834 834 835 835 835 835 835 835 835 836
829 829 828 827 825 824 822 820 819 817 815 813 811 809 807 805 804 802 800 798 797 795 794 792 790 788 786 784 782 781 780 779 778 777 776 777 778 779 779 780 782 781 781 782 783 785 786 788 791 794 798 800 802 804 807 810 812 813 813 814 816 817 818 819 820 822 823 824 826 827 828 829 830 832 833 833 833 833 834 834 835 835 835 835 835
829 828 827 826 825 823 822 820 818 816 814 812 810 809 807 806 804 803 800 798 797 795 794 793 791 788 786 785 783 782 781 780 779 778 777 778 779 780 781 782 782 782 782 784 785 787 789 791 793 796 799 801 803 805 808 811 812 813 813 814 816 817 818 819 820 821 822 824 825 827 828 830 831 832 832 832 832 832 833 834 835 835 835 835 835
828 828 827 825 824 823 821 820 818 816 814 812 810 809 807 806 805 803 801 799 798 796 795 793 791 789 787 786 784 784 783 782 781 780 780 780 780 781 783 783 783 783 784 786 787 788 790 793 795 798 801 802 804 806 808 812 814 814 814 815 816 817 818 819 820 820 822 823 825 827 829 830 831 831 831 831 831 832 833 834 835 835 835 834 834
828 827 826 825 823 822 821 820 818 816 814 812 811 809 808 807 805 804 802 801 799 798 796 794 792 790 788 787 786 785 784 783 782 782 782 782 782 783 784 785 785 785 787 788 789 790 792 794 797 800 802 803 805 807 809 812 814 815 816 816 817 817 818 819 820 821 822 824 826 827 829 830 831 831 831 831 831 832 833 834 835 835 834 834 834
828 826 825 824 823 822 820 819 818 816 814 813 811 810 809 807 806 804 803 801 800 799 797 795 793 792 790 788 787 786 785 784 784 784 784 784 784 784 785 785 786 787 788 789 791 792 793 795 798 800 802 804 806 808 810 812 814 816 816 817 817 817 818 819 821 823 824 825 826 827 828 829 830 831 831 831 831 832 833 835 835 834 834 834 834
827 826 824 823 822 821 820 819 818 816 815 813 812 811 809 808 807 805 803 802 800 799 798 797 795 793 792 790 789 788 787 786 786 787 786 786 786 786 786 787 788 789 790 791 792 793 794 797 799 801 803 805 807 809 811 813 815 816 817 817 817 817 818 820 823 825 826 827 827 827 828 829 830 831 831 831 831 832 834 835 834 834 834 834 834
826 825 823 822 821 820 819 819 818 816 815 814 812 811 810 809 808 806 804 803 802 801 800 799 797 796 794 793 792 791 790 790 789 789 788 788 788 789 789 790 791 791 791 792 793 794 796 798 800 802 804 807 809 811 813 815 816 817 817 818 819 818 819 821 824 826 827 827 827 827 828 829 830 830 830 831 832 833 834 834 834 834 834 833 833
826 824 823 822 821 820 819 818 817 816 815 814 813 812 811 810 809 807 806 804 803 802 802 801 799 798 797 796 795 794 793 793 792 791 791 791 792 792 793 793 793 793 794 795 795 796 798 800 802 804 806 809 811 814 816 817 818 818 819 819 820 820 820 822 824 826 826 827 827 828 828 829 830 830 830 831 832 833 834 834 834 833 833 833 833
826 824 823 822 821 820 819 818 817 816 815 815 814 813 812 811 810 808 807 806 805 804 803 802 801 800 800 799 798 797 796 796 795 795 795 795 795 796 796 796 796 797 798 798 799 800 802 804 806 808 810 812 814 816 817 818 819 819 820 820 820 821 822 823 824 825 826 827 828 828 829 829 830 830 831 832 833 834 834 834 834 833 833 833 833
825 825 823 822 821 820 819 818 817 817 816 815 814 814 813 812 811 809 808 807 806 805 805 804 804 803 802 802 801 800 800 799 799 799 799 799 800 800 801 801 801 801 802 803 804 805 807 808 810 812 813 815 817 817 818 819 819 820 820 821 821 822 823 824 825 825 826 827 828 829 829 829 830 830 831 832 833 833 834 834 834 834 834 834 834
825 825 824 822 821 820 819 819 818 817 817 816 816 815 814 813 812 811 809 808 808 807 807 806 806 806 805 805 804 804 803 803 803 803 803 803 804 804 804 805 805 805 805 806 808 809 810 812 813 815 817 818 818 819 819 820 820 821 821 822 822 823 824 824 825 825 826 827 828 829 830 830 830 831 832 832 833 834 834 834 834 834 834 834 834
825 825 824 823 822 821 821 820 819 819 818 818 817 816 815 814 813 812 811 810 809 809 809 809 808 808 808 808 807 807 806 806 806 806 806 807 807 807 808 808 808 809 809 810 811 812 814 815 817 818 819 820 820 820 821 821 821 822 822 823 823 824 824 825 825 826 827 828 829 830 831 831 831 831 832 832 833 834 834 834 834 835 835 834 833
825 825 824 824 823 822 822 821 820 820 819 819 818 817 817 816 814 813 813 812 811 811 811 811 811 810 810 810 810 810 809 809 809 809 809 810 810 810 811 811 812 812 813 813 814 815 817 818 819 820 820 821 821 822 822 822 822 823 823 824 824 825 825 826 827 827 828 829 830 831 831 831 831 831 832 832 833 834 834 834 835 835 834 834 833